EN

Hourly Weather Narbonne

Today, 28 November, Saturday

Time Temperature Precipitation Wind Pressure Humidity
00:00 +12°C° 0 mm 7 mps 757 mmHg 90%
01:00 +12°C° 1.5 mm 7 mps 757 mmHg 91%
02:00 +12°C° 1.5 mm 7 mps 757 mmHg 91%
03:00 +12°C° 1.5 mm 7 mps 756 mmHg 92%
04:00 +12°C° 1.4 mm 7 mps 756 mmHg 92%
05:00 +12°C° 1.4 mm 8 mps 756 mmHg 92%
06:00 +12°C° 1.4 mm 8 mps 756 mmHg 92%
07:00 +12°C° 1.2 mm 8 mps 756 mmHg 91%
08:00 +12°C° 1.2 mm 8 mps 756 mmHg 89%
09:00 +12°C° 1.2 mm 8 mps 756 mmHg 88%
10:00 +12°C° 1.5 mm 8 mps 756 mmHg 89%
11:00 +12°C° 1.5 mm 7 mps 756 mmHg 90%
12:00 +12°C° 1.5 mm 7 mps 756 mmHg 91%
13:00 +13°C° 0.7 mm 6 mps 756 mmHg 89%
14:00 +13°C° 0.7 mm 5 mps 756 mmHg 87%
15:00 +13°C° 0.7 mm 5 mps 756 mmHg 85%
16:00 +13°C° 0.1 mm 4 mps 756 mmHg 84%
17:00 +13°C° 0.1 mm 3 mps 756 mmHg 84%
18:00 +12°C° 0.1 mm 3 mps 757 mmHg 83%
19:00 +13°C° 0 mm 2 mps 757 mmHg 82%
20:00 +13°C° 0 mm 2 mps 758 mmHg 80%
21:00 +13°C° 0 mm 2 mps 758 mmHg 79%
22:00 +12°C° 0 mm 1 mps 758 mmHg 78%
23:00 +12°C° 0 mm 1 mps 759 mmHg 77%

Tomorrow, 29 November, Sunday

Time Temperature Precipitation Wind Pressure Humidity
00:00 +12°C° 0 mm 1 mps 759 mmHg 76%
01:00 +12°C° 0 mm 1 mps 759 mmHg 76%
02:00 +12°C° 0 mm 1 mps 759 mmHg 77%
03:00 +11°C° 0 mm 1 mps 759 mmHg 77%
04:00 +11°C° 0 mm 1 mps 759 mmHg 76%
05:00 +11°C° 0 mm 1 mps 759 mmHg 75%
06:00 +11°C° 0 mm 1 mps 760 mmHg 75%
07:00 +12°C° 0 mm 1 mps 760 mmHg 73%
08:00 +13°C° 0 mm 1 mps 760 mmHg 71%
09:00 +14°C° 0 mm 1 mps 761 mmHg 69%
10:00 +15°C° 0 mm 1 mps 760 mmHg 66%
11:00 +16°C° 0 mm 1 mps 760 mmHg 64%
12:00 +18°C° 0 mm 1 mps 760 mmHg 61%
13:00 +18°C° 0 mm 1 mps 760 mmHg 64%
14:00 +18°C° 0 mm 1 mps 760 mmHg 66%
15:00 +17°C° 0 mm 2 mps 760 mmHg 69%
16:00 +15°C° 0 mm 1 mps 761 mmHg 73%
17:00 +14°C° 0 mm 1 mps 761 mmHg 77%
18:00 +13°C° 0 mm 1 mps 762 mmHg 81%
19:00 +12°C° 0 mm 1 mps 762 mmHg 81%
20:00 +12°C° 0 mm 1 mps 762 mmHg 82%
21:00 +11°C° 0 mm 1 mps 763 mmHg 83%
22:00 +11°C° 0 mm 1 mps 763 mmHg 83%
23:00 +11°C° 0 mm 1 mps 763 mmHg 84%

Day after tomorrow, 30 November, Monday

Time Temperature Precipitation Wind Pressure Humidity
00:00 +10°C° 0 mm 1 mps 764 mmHg 84%
01:00 +10°C° 0 mm 1 mps 764 mmHg 84%
02:00 +10°C° 0 mm 1 mps 764 mmHg 84%
03:00 +10°C° 0 mm 1 mps 764 mmHg 85%
04:00 +9°C° 0 mm 1 mps 764 mmHg 85%
05:00 +9°C° 0 mm 1 mps 765 mmHg 85%
06:00 +9°C° 0 mm 1 mps 765 mmHg 85%
07:00 +10°C° 0 mm 1 mps 765 mmHg 82%
08:00 +10°C° 0 mm 1 mps 765 mmHg 78%
09:00 +11°C° 0 mm 1 mps 766 mmHg 75%
10:00 +12°C° 0 mm 1 mps 766 mmHg 70%
11:00 +14°C° 0 mm 1 mps 766 mmHg 65%
12:00 +15°C° 0 mm 1 mps 766 mmHg 60%
13:00 +15°C° 0 mm 1 mps 766 mmHg 61%
14:00 +14°C° 0 mm 1 mps 765 mmHg 63%
15:00 +14°C° 0 mm 1 mps 765 mmHg 64%
16:00 +13°C° 0 mm 1 mps 766 mmHg 68%
17:00 +12°C° 0 mm 1 mps 766 mmHg 73%
18:00 +10°C° 0 mm 1 mps 767 mmHg 77%
19:00 +10°C° 0 mm 1 mps 767 mmHg 77%
20:00 +8°C° 0 mm 2 mps 767 mmHg 77%
21:00 +8°C° 0 mm 2 mps 768 mmHg 78%
22:00 +7°C° 0 mm 2 mps 768 mmHg 78%
23:00 +7°C° 0 mm 3 mps 768 mmHg 79%

1 December, Tuesday

Time Temperature Precipitation Wind Pressure Humidity
00:00 +7°C° 0 mm 3 mps 768 mmHg 79%
01:00 +7°C° 0 mm 3 mps 767 mmHg 79%
02:00 +5°C° 0 mm 3 mps 767 mmHg 78%
03:00 +5°C° 0 mm 3 mps 767 mmHg 78%
04:00 +5°C° 0 mm 4 mps 767 mmHg 76%
05:00 +5°C° 0 mm 4 mps 767 mmHg 75%
06:00 +5°C° 0 mm 5 mps 767 mmHg 74%
07:00 +6°C° 0 mm 5 mps 767 mmHg 69%
08:00 +7°C° 0 mm 5 mps 767 mmHg 65%
09:00 +8°C° 0 mm 6 mps 766 mmHg 61%
10:00 +9°C° 0 mm 6 mps 766 mmHg 56%
11:00 +10°C° 0 mm 6 mps 766 mmHg 52%
12:00 +11°C° 0 mm 7 mps 765 mmHg 47%
13:00 +11°C° 0 mm 7 mps 765 mmHg 50%
14:00 +11°C° 0 mm 7 mps 764 mmHg 53%
15:00 +11°C° 0 mm 7 mps 764 mmHg 56%
16:00 +10°C° 0 mm 7 mps 764 mmHg 58%
17:00 +9°C° 0 mm 7 mps 764 mmHg 60%
18:00 +9°C° 0 mm 7 mps 764 mmHg 62%
19:00 +8°C° 0 mm 7 mps 764 mmHg 65%
20:00 +7°C° 0 mm 8 mps 764 mmHg 67%
21:00 +7°C° 0 mm 8 mps 764 mmHg 70%
22:00 +7°C° 0 mm 8 mps 764 mmHg 72%
23:00 +6°C° 0 mm 8 mps 763 mmHg 73%

2 December, Wednesday

Time Temperature Precipitation Wind Pressure Humidity
00:00 +6°C° 0 mm 8 mps 763 mmHg 75%
01:00 +6°C° 0 mm 8 mps 763 mmHg 76%
02:00 +6°C° 0 mm 8 mps 762 mmHg 77%
03:00 +6°C° 0 mm 8 mps 762 mmHg 78%
04:00 +6°C° 0 mm 7 mps 762 mmHg 77%
05:00 +6°C° 0 mm 7 mps 762 mmHg 77%
06:00 +6°C° 0 mm 7 mps 762 mmHg 77%
07:00 +6°C° 0 mm 7 mps 762 mmHg 74%
08:00 +7°C° 0 mm 6 mps 762 mmHg 71%
09:00 +7°C° 0 mm 6 mps 762 mmHg 67%
10:00 +8°C° 0 mm 6 mps 761 mmHg 61%
11:00 +9°C° 0 mm 6 mps 761 mmHg 55%
12:00 +10°C° 0 mm 6 mps 760 mmHg 49%
13:00 +9°C° 0 mm 7 mps 760 mmHg 50%
14:00 +9°C° 0 mm 7 mps 760 mmHg 52%
15:00 +9°C° 0 mm 7 mps 759 mmHg 53%
16:00 +8°C° 0 mm 7 mps 760 mmHg 58%
17:00 +5°C° 0 mm 7 mps 760 mmHg 62%
18:00 +4°C° 0 mm 6 mps 760 mmHg 66%
19:00 +4°C° 0 mm 6 mps 761 mmHg 69%
20:00 +4°C° 0 mm 6 mps 761 mmHg 71%
21:00 +3°C° 0 mm 6 mps 761 mmHg 74%
22:00 +3°C° 0 mm 5 mps 761 mmHg 75%
23:00 +3°C° 0 mm 5 mps 760 mmHg 76%

3 December, Thursday

Time Temperature Precipitation Wind Pressure Humidity
00:00 +2°C° 0 mm 5 mps 760 mmHg 77%
01:00 +2°C° 0 mm 5 mps 760 mmHg 78%
02:00 +2°C° 0 mm 5 mps 759 mmHg 78%
03:00 +1°C° 0 mm 5 mps 759 mmHg 79%
04:00 +1°C° 0 mm 5 mps 759 mmHg 79%
05:00 +1°C° 0 mm 5 mps 758 mmHg 78%
06:00 +1°C° 0 mm 5 mps 758 mmHg 78%
07:00 +2°C° 0 mm 5 mps 758 mmHg 74%
08:00 +3°C° 0 mm 4 mps 758 mmHg 71%
09:00 +4°C° 0 mm 4 mps 758 mmHg 67%
10:00 +5°C° 0 mm 4 mps 757 mmHg 63%
11:00 +6°C° 0 mm 4 mps 756 mmHg 58%
12:00 +9°C° 0 mm 3 mps 756 mmHg 53%
13:00 +9°C° 0 mm 3 mps 755 mmHg 54%
14:00 +9°C° 0 mm 2 mps 755 mmHg 55%
15:00 +9°C° 0 mm 2 mps 754 mmHg 57%
16:00 +7°C° 0 mm 2 mps 754 mmHg 62%
17:00 +6°C° 0 mm 2 mps 754 mmHg 67%
18:00 +5°C° 0 mm 2 mps 754 mmHg 72%
19:00 +4°C° 0 mm 2 mps 754 mmHg 71%
20:00 +5°C° 0 mm 1 mps 754 mmHg 71%
21:00 +5°C° 0 mm 1 mps 754 mmHg 70%
22:00 +5°C° 0 mm 1 mps 753 mmHg 70%
23:00 +5°C° 0 mm 1 mps 753 mmHg 69%
Show more

We Need Your Consent

Meteoprog and our Service Providers may store and access personal data such as cookies, device identifiers or other similar technologies on your device and process such data to personalise content and ads, as well as provide social media features and to analyse the traffic.

  • Store and/or access information on your device

    Cookies, device identifiers or other information can be stored or accessed on your device for the purposes indicated above.

  • Personalised ads and content, ad and content measurement, audience insights, and products development

    Ads and content can be personalised based on a profile. More data can be added to better personalise ads and content. Ad and content performance can be measured. Insights about the audience who saw the ads and content can be derived. Such data can be used to develop or improve user’s experience, systems and software.

By clicking ‘I Agree’ you will allow the use of indicated cookies, device identifiers, web beacons or other similar technologies. Your settings can be changed in the browser on your device.

For certain purposes, legitimate interests may be relied on, rather than consent. You can read more about this in our Privacy and Cookie Policy.